Location: ??????
(38.0131°N, 23.7723°E)
Time: 01:59:55
(UTC+00:00)

SL-16 R/B - Pass Details

Date: 17 October 2021
Orbit: 842 x 846 km, 71.0° (Epoch: 04 December)

Event Time Altitude Azimuth Distance (km) Brightness Sun altitude
Rises 17:46:54 0° 202° (SSW) 3,383 5.5 -24.8°
Reaches altitude 10° 17:49:19 10° 203° (SSW) 2,453 4.8 -25.3°
Maximum altitude 17:54:58 86° 293° (WNW) 851 2.1 -26.4°
Enters shadow 17:57:16 38° 18° (NNE) 1,269 3.0 -26.9°
